SCP
0 -1 -1 -1 -1 -1 -1 -1 -1 -1 -1 -1 -1 -0 -0 -0 -0 -0 -0 -0 -0 -0 -0 0 0 0 0 0 0 -0 -0 0 0 0 0 0 0 0 0 0 0 0 0
-1 -1 -1 -1 -1 -1 -1 -1 -1 -1 -1 -1 -1 -0 -0 -0 -0 -0 -0 -0 -0 -0 -0 -0 -0 -0 0 0 -0 0 0 0 0 0 0 0 0 0 0 0 0 0 0
-1 -1 -1 -1 -1 -1 -1 -1 -1 -1 -1 -1 -0 -0 -0 -0 -0 -0 -0 -0 -0 -0 -0 -0 -0 0 0 0 0 0 0 0 0 0 0 0 0 0 0 0 0 0 0
-2 -1 -1 -1 -1 -1 -1 -1 -0 -0 -0 -0 -0 -0 -0 -0 -0 -0 -0 -0 -0 -0 -0 -0 0 0 0 0 0 0 0 0 0 0 0 0 0 0 0 0 0 0 0
-1 -1 -1 -1 -1 -1 -1 -1 -0 -0 -0 -0 -0 -0 -0 -0 -0 -0 -0 -0 -0 -0 -0 -0 -0 0 0 0 0 0 0 0 0 0 0 0 0 0 0 0 0 0 0
-0 -0 -1 -1 -1 -1 -1 -0 -0 -0 -0 -0 -0 -0 -0 -0 -0 -0 -0 -0 -0 -0 -0 -0 -0 0 0 0 0 0 0 0 0 0 0 0 0 0 0 0 0 0 0
0 0 -0 -1 -1 -1 -1 -0 -0 -0 -0 -0 -0 -0 -0 -0 -0 -0 -0 -0 -0 -0 -0 -0 0 0 0 0 0 0 0 0 0 0 0 0 0 0 0 0 0 0 0
0 0 -0 -0 -1 -1 -1 -0 -0 -0 -0 -0 -0 -0 -0 -0 -0 -0 -0 -0 -0 -0 -0 0 0 0 0 0 0 0 0 0 0 0 0 0 0 0 0 0 1 1 1
1 0 0 0 -0 -0 -1 -1 -0 -0 -0 -0 -0 -0 -0 -0 -0 -0 -0 -0 -0 0 0 0 -0 0 0 0 0 0 0 0 0 0 0 0 0 0 0 0 1 1 1
1 1 1 1 0 0 0 -0 -0 -0 -0 -0 -0 -0 -0 -0 -0 -0 -0 0 0 0 0 0 0 0 0 0 0 0 0 0 0 0 0 0 0 0 0 0 1 1 1
1 1 1 1 1 1 0 0 0 -0 -0 -0 -0 -0 -0 0 0 0 0 0 0 0 0 0 0 0 0 0 0 0 0 0 0 0 0 0 0 0 0 0 1 1 1
1 1 1 1 1 1 1 0 0 0 0 0 0 0 0 0 0 0 0 0 0 0 0 0 0 0 0 0 0 0 0 0 0 0 0 0 0 0 0 0 1 1 1
1 1 1 1 1 1 1 1 1 0 0 0 0 0 0 0 0 0 0 0 0 0 0 0 0 0 0 -0 -0 -0 -0 0 0 0 0 0 0 0 0 0 0 1 1
0 0 1 1 1 1 1 1 0 0 0 0 0 0 0 0 0 0 0 0 0 0 0 0 0 -0 -0 -0 -0 0 0 0 0 0 0 0 0 0 0 1 1 1 1
1 0 0 0 0 1 1 0 0 0 0 0 0 0 0 0 0 0 0 0 0 0 0 0 -0 -0 -0 -0 0 0 0 0 0 0 0 0 0 0 0 1 1 1 2
1 0 0 0 0 1 1 0 0 0 0 0 0 0 0 0 0 0 0 0 0 0 0 0 0 0 0 -0 0 0 0 0 0 0 0 0 0 0 1 1 1 1 1
1 1 0 0 0 0 0 0 0 0 0 0 0 0 0 0 0 0 0 0 0 0 0 0 0 0 -0 0 0 0 0 0 0 0 0 0 0 0 1 1 0 0 0
1 0 0 0 0 0 0 0 0 0 0 0 0 0 0 0 0 0 0 0 0 0 0 0 0 0 0 0 0 0 0 0 0 0 0 0 0 0 0 0 0 0 0
1 1 1 1 0 0 0 0 0 0 0 0 0 0 0 0 0 0 0 0 0 0 0 0 0 0 0 0 0 0 0 0 0 0 0 0 0 0 0 0 0 0 0
1 1 0 0 0 0 0 0 0 0 0 0 0 0 0 0 0 0 0 1 0 0 0 0 0 0 0 0 0 0 0 0 0 0 0 0 0 0 0 0 0 0 0
1 0 0 0 0 0 0 0 0 0 0 0 0 0 0 0 0 1 0 0 0 0 0 0 0 0 0 0 0 0 0 0 0 0 0 0 0 0 0 0 0 0 0
0 0 0 0 0 0 0 0 0 0 0 0 0 0 0 0 1 1 1 0 0 0 0 -0 0 0 0 0 0 0 0 0 0 0 0 0 0 0 0 0 0 0 0
0 0 0 0 0 0 0 1 1 1 1 1 0 1 1 0 0 0 0 0 0 0 -0 0 0 0 0 0 0 0 0 0 0 0 0 0 0 0 0 0 0 0 0
0 0 0 0 0 0 1 1 2 1 0 0 0 0 0 0 0 -0 -0 0 -0 -0 -0 0 0 0 0 0 0 0 0 0 0 0 0 0 0 0 0 0 0 0 0
0 0 0 0 0 1 1 1 0 0 0 0 0 0 0 0 0 0 0 0 0 0 0 0 0 0 0 0 0 0 0 0 0 0 0 0 0 0 0 0 0 0 0
0 0 0 0 0 0 0 0 0 0 0 0 0 0 0 0 0 0 0 0 0 0 0 0 0 0 0 0 0 0 0 0 0 0 0 0 0 0 0 0 0 0 0
Wind_Speed_500mb
61 60 60 58 56 49 41 33 34 39 40 38 33 29 26 29 32 37 38 39 38 34 35 35 32 29 22 20 23 22 23 21 20 21 24 23 20 15 17 13 15 15 14
65 67 64 64 59 50 40 33 35 39 37 36 33 30 29 32 36 37 36 36 32 32 33 31 27 23 20 19 20 20 21 20 19 19 21 20 17 15 16 16 17 17 16
67 73 69 67 61 51 42 35 36 38 36 34 32 32 34 36 39 37 34 32 30 29 28 26 23 21 19 19 18 17 18 18 18 16 15 14 12 11 14 17 19 18 17
70 76 73 69 61 52 43 37 35 34 35 34 33 35 38 40 40 36 32 31 28 25 24 23 21 19 18 17 16 15 16 15 11 8 5 4 5 8 12 15 17 19 19
72 76 74 70 62 53 46 39 34 32 34 35 37 40 41 41 38 33 29 26 23 21 21 21 20 17 16 15 15 15 16 13 8 3 2 4 9 9 11 12 14 18 19
76 75 72 69 63 55 48 41 35 33 34 37 39 41 41 39 35 31 27 23 22 22 21 20 19 18 16 16 16 16 16 12 7 3 5 8 11 14 12 12 14 17 18
78 75 72 68 63 57 49 43 37 34 34 39 40 40 39 37 35 31 28 26 24 23 22 22 23 22 20 18 16 16 15 12 9 8 12 13 16 19 20 20 19 20 22
75 75 72 67 62 57 53 46 39 35 33 37 40 40 37 35 34 33 31 29 26 24 24 24 23 21 19 17 14 12 12 12 13 16 17 19 25 32 33 30 27 26 23
74 74 72 67 62 57 52 49 43 37 34 34 39 39 36 35 35 33 31 29 26 24 23 22 21 21 18 14 10 8 7 9 12 15 16 18 24 31 32 30 28 25 28
75 72 71 69 66 62 56 50 45 40 36 34 36 39 36 34 34 32 30 28 25 23 21 19 17 13 10 8 4 3 6 9 12 12 12 14 18 19 17 17 22 29 31
76 75 73 73 68 63 59 54 50 45 40 37 35 37 39 35 33 31 29 27 25 22 19 16 14 11 9 6 4 2 2 6 5 9 13 17 22 24 24 26 30 35 39
85 81 77 76 73 68 63 59 54 51 47 41 37 35 36 37 34 31 29 27 25 22 19 15 10 8 9 9 7 4 3 4 5 9 13 18 23 26 30 34 37 38 41
87 81 81 76 73 71 68 63 59 54 50 44 38 34 35 37 38 35 31 27 22 17 16 16 15 12 13 10 6 4 5 10 14 18 22 27 32 33 34 35 39 40 41
90 84 81 77 75 73 69 66 64 61 56 50 42 38 37 37 38 37 33 25 21 20 18 18 14 11 9 8 4 6 12 15 20 23 26 29 34 37 39 40 41 42 42
89 85 81 77 76 72 69 68 66 61 55 49 44 40 37 36 36 35 32 27 27 20 17 17 16 12 9 6 9 13 17 22 25 29 32 38 43 44 46 47 46 47 47
89 85 80 77 73 70 67 65 63 59 54 49 44 39 37 35 33 34 33 34 26 22 19 18 15 13 10 8 13 19 21 24 27 32 38 39 40 41 41 44 44 46 47
89 83 79 76 72 68 63 60 58 55 52 46 41 38 37 33 31 29 34 30 24 20 21 19 17 15 13 17 21 26 29 29 29 30 34 35 34 33 32 32 34 34 32
81 80 78 75 71 63 58 56 56 52 46 40 37 35 34 33 34 30 32 29 27 24 18 14 14 20 22 23 25 27 29 25 25 27 30 33 32 32 32 32 32 33 36
75 74 72 68 63 56 54 54 52 46 41 35 35 33 32 34 34 33 30 24 18 17 15 15 18 25 31 30 30 28 23 27 26 24 26 29 34 33 34 34 37 42 46
69 65 61 59 57 56 52 49 47 44 40 38 36 35 34 36 37 34 25 27 27 16 14 15 30 37 37 38 32 28 28 27 19 25 24 35 32 34 34 42 46 45 44
74 67 59 59 58 57 59 57 53 50 46 38 37 31 27 33 37 35 35 35 19 13 14 23 36 39 42 35 32 31 31 17 25 16 39 32 39 44 46 52 50 51 50
64 67 67 66 61 66 64 62 56 48 45 43 40 40 38 37 38 42 40 31 22 18 4 44 35 37 37 29 24 33 21 29 15 38 28 38 46 46 59 56 50 47 45
74 73 73 73 65 68 67 64 59 46 46 44 44 42 41 43 38 29 44 26 17 17 30 38 41 29 25 24 28 14 9 12 41 22 36 35 49 52 55 52 46 41 39
75 74 72 72 71 66 65 66 60 53 47 44 44 41 36 29 29 25 36 33 27 24 38 38 22 18 21 21 19 23 22 22 14 21 25 31 45 45 44 38 36 33 40
80 77 78 81 77 70 67 60 53 52 50 43 30 17 20 14 15 25 33 31 20 33 25 19 14 17 21 22 23 24 22 21 15 23 19 48 53 52 40 33 33 39 39
80 76 83 86 80 68 62 52 49 50 40 36 27 20 16 13 25 21 7 18 26 18 14 13 11 17 21 23 24 24 24 22 24 26 39 52 54 51 44 40 32 36 39
Wind_Direction_500mb
173 175 175 171 170 171 171 173 172 163 157 157 158 155 153 144 141 145 144 144 140 137 140 138 138 138 132 119 121 119 114 107 105 104 100 95 86 71 58 58 48 46 43
171 174 173 168 171 172 171 171 171 168 165 165 166 167 159 150 148 150 148 146 145 142 142 142 139 139 135 128 125 121 116 114 113 108 100 94 84 71 57 47 33 25 17
175 172 171 171 171 172 168 165 167 168 168 171 170 166 160 155 154 154 150 146 143 144 146 146 142 137 135 133 129 124 120 123 125 105 99 95 80 65 44 28 19 13 7
175 172 173 172 172 171 165 162 165 166 169 170 170 167 161 157 157 155 152 148 146 147 149 148 144 141 140 138 136 132 134 137 136 124 99 68 34 19 6 10 11 6 358
176 174 174 172 172 170 166 162 163 166 168 168 167 164 162 160 160 158 157 156 157 155 152 156 156 150 147 147 145 146 151 151 151 130 38 335 330 340 354 9 7 4 359
176 175 174 174 174 171 166 164 163 165 165 165 165 164 163 163 164 163 164 166 165 165 165 162 159 158 158 159 159 164 165 169 173 225 299 320 332 316 323 328 340 343 343
176 175 174 176 176 173 168 166 166 165 164 165 167 168 167 168 169 170 170 169 170 169 166 163 164 165 165 162 164 175 188 193 210 271 301 312 321 328 319 313 319 323 322
179 177 176 177 178 176 173 171 170 167 164 168 171 172 171 172 172 171 171 169 164 161 160 161 161 160 157 156 162 178 203 229 254 277 292 296 303 305 305 307 306 310 306
182 180 178 178 179 179 178 176 174 170 167 170 175 176 175 173 171 171 170 165 158 153 150 150 150 154 157 156 166 190 223 253 270 279 290 302 304 304 299 298 308 311 307
183 183 181 181 182 181 180 179 178 176 173 173 177 180 179 176 174 173 172 167 162 158 151 150 152 155 159 173 192 248 288 287 287 289 293 302 312 322 324 308 301 303 305
186 186 185 185 184 184 183 181 180 180 180 179 180 183 186 183 181 178 176 174 171 168 164 163 166 165 165 158 160 170 311 296 286 302 302 303 300 298 296 295 294 295 297
188 188 189 188 187 186 186 186 185 186 186 187 187 189 191 191 189 184 182 179 178 173 170 168 166 176 183 172 186 216 291 304 290 293 303 306 306 300 295 292 294 301 303
191 189 189 189 190 190 190 190 190 192 192 193 194 196 197 196 196 193 189 186 180 182 185 172 141 140 160 182 202 236 283 302 306 307 307 307 307 305 300 295 295 301 306
193 192 190 190 191 193 195 196 198 198 198 199 200 203 205 202 201 200 197 189 182 170 172 169 174 184 185 185 230 296 310 310 307 310 311 310 309 309 307 304 304 303 300
197 195 192 192 196 198 200 201 203 203 204 205 207 211 211 208 207 204 198 186 175 175 166 176 188 188 200 248 305 327 323 316 314 311 307 310 310 306 304 303 301 297 297
199 197 194 194 199 202 206 207 207 207 207 208 212 215 213 210 208 205 195 185 187 180 182 196 203 224 248 294 314 311 308 312 309 311 312 312 311 308 307 303 299 295 296
200 198 197 199 201 206 207 207 206 206 208 210 213 214 214 210 199 193 194 192 187 193 213 227 244 251 261 286 294 305 314 318 317 317 312 312 313 315 315 312 309 304 302
198 199 201 203 203 205 206 204 204 205 205 206 208 211 212 206 196 195 196 200 204 218 225 242 248 265 275 290 303 315 319 318 316 311 313 314 314 316 313 311 309 305 305
196 196 200 204 204 203 203 204 204 204 203 203 205 208 208 202 198 201 202 205 211 223 244 261 276 287 290 301 305 309 313 312 313 319 319 322 322 323 320 315 310 307 305
198 196 200 203 202 203 203 204 204 204 204 207 210 208 210 200 199 207 217 218 220 254 286 300 304 286 299 295 301 310 316 320 318 321 331 327 320 320 321 320 316 313 312
201 197 199 202 203 202 201 202 202 205 204 199 194 197 198 202 207 218 215 212 220 254 274 282 268 286 285 294 306 312 322 323 315 312 324 320 321 317 319 320 317 314 311
204 202 204 206 205 204 203 201 201 203 200 200 203 210 212 219 216 224 227 213 218 141 185 280 286 282 283 292 320 327 316 311 303 310 322 312 315 313 321 326 324 324 325
207 207 205 208 208 205 203 204 208 204 205 212 222 230 236 235 223 220 230 208 172 168 238 280 269 275 284 311 322 330 310 284 311 294 314 314 316 315 323 331 333 334 328
202 201 203 209 208 208 208 210 215 211 210 219 233 237 236 218 182 52 43 35 177 198 256 261 270 280 301 312 326 324 326 315 298 305 318 322 327 333 334 342 344 342 335
196 198 202 206 208 208 209 212 218 214 215 222 208 184 175 166 98 108 117 154 198 244 237 251 265 299 303 319 325 331 328 334 321 325 320 337 344 353 4 5 355 349 346
193 197 202 207 210 209 208 210 214 217 209 218 196 153 130 127 137 113 166 217 198 198 207 246 295 306 316 321 327 336 343 346 344 349 340 342 347 360 8 5 3 355 347
Wind_Speed_850mb
61 60 60 58 56 49 41 33 34 39 40 38 33 29 26 29 32 37 38 39 38 34 35 35 32 29 22 20 23 22 23 21 20 21 24 23 20 15 17 13 15 15 14
65 67 64 64 59 50 40 33 35 39 37 36 33 30 29 32 36 37 36 36 32 32 33 31 27 23 20 19 20 20 21 20 19 19 21 20 17 15 16 16 17 17 16
67 73 69 67 61 51 42 35 36 38 36 34 32 32 34 36 39 37 34 32 30 29 28 26 23 21 19 19 18 17 18 18 18 16 15 14 12 11 14 17 19 18 17
70 76 73 69 61 52 43 37 35 34 35 34 33 35 38 40 40 36 32 31 28 25 24 23 21 19 18 17 16 15 16 15 11 8 5 4 5 8 12 15 17 19 19
72 76 74 70 62 53 46 39 34 32 34 35 37 40 41 41 38 33 29 26 23 21 21 21 20 17 16 15 15 15 16 13 8 3 2 4 9 9 11 12 14 18 19
76 75 72 69 63 55 48 41 35 33 34 37 39 41 41 39 35 31 27 23 22 22 21 20 19 18 16 16 16 16 16 12 7 3 5 8 11 14 12 12 14 17 18
78 75 72 68 63 57 49 43 37 34 34 39 40 40 39 37 35 31 28 26 24 23 22 22 23 22 20 18 16 16 15 12 9 8 12 13 16 19 20 20 19 20 22
75 75 72 67 62 57 53 46 39 35 33 37 40 40 37 35 34 33 31 29 26 24 24 24 23 21 19 17 14 12 12 12 13 16 17 19 25 32 33 30 27 26 23
74 74 72 67 62 57 52 49 43 37 34 34 39 39 36 35 35 33 31 29 26 24 23 22 21 21 18 14 10 8 7 9 12 15 16 18 24 31 32 30 28 25 28
75 72 71 69 66 62 56 50 45 40 36 34 36 39 36 34 34 32 30 28 25 23 21 19 17 13 10 8 4 3 6 9 12 12 12 14 18 19 17 17 22 29 31
76 75 73 73 68 63 59 54 50 45 40 37 35 37 39 35 33 31 29 27 25 22 19 16 14 11 9 6 4 2 2 6 5 9 13 17 22 24 24 26 30 35 39
85 81 77 76 73 68 63 59 54 51 47 41 37 35 36 37 34 31 29 27 25 22 19 15 10 8 9 9 7 4 3 4 5 9 13 18 23 26 30 34 37 38 41
87 81 81 76 73 71 68 63 59 54 50 44 38 34 35 37 38 35 31 27 22 17 16 16 15 12 13 10 6 4 5 10 14 18 22 27 32 33 34 35 39 40 41
90 84 81 77 75 73 69 66 64 61 56 50 42 38 37 37 38 37 33 25 21 20 18 18 14 11 9 8 4 6 12 15 20 23 26 29 34 37 39 40 41 42 42
89 85 81 77 76 72 69 68 66 61 55 49 44 40 37 36 36 35 32 27 27 20 17 17 16 12 9 6 9 13 17 22 25 29 32 38 43 44 46 47 46 47 47
89 85 80 77 73 70 67 65 63 59 54 49 44 39 37 35 33 34 33 34 26 22 19 18 15 13 10 8 13 19 21 24 27 32 38 39 40 41 41 44 44 46 47
89 83 79 76 72 68 63 60 58 55 52 46 41 38 37 33 31 29 34 30 24 20 21 19 17 15 13 17 21 26 29 29 29 30 34 35 34 33 32 32 34 34 32
81 80 78 75 71 63 58 56 56 52 46 40 37 35 34 33 34 30 32 29 27 24 18 14 14 20 22 23 25 27 29 25 25 27 30 33 32 32 32 32 32 33 36
75 74 72 68 63 56 54 54 52 46 41 35 35 33 32 34 34 33 30 24 18 17 15 15 18 25 31 30 30 28 23 27 26 24 26 29 34 33 34 34 37 42 46
69 65 61 59 57 56 52 49 47 44 40 38 36 35 34 36 37 34 25 27 27 16 14 15 30 37 37 38 32 28 28 27 19 25 24 35 32 34 34 42 46 45 44
74 67 59 59 58 57 59 57 53 50 46 38 37 31 27 33 37 35 35 35 19 13 14 23 36 39 42 35 32 31 31 17 25 16 39 32 39 44 46 52 50 51 50
64 67 67 66 61 66 64 62 56 48 45 43 40 40 38 37 38 42 40 31 22 18 4 44 35 37 37 29 24 33 21 29 15 38 28 38 46 46 59 56 50 47 45
74 73 73 73 65 68 67 64 59 46 46 44 44 42 41 43 38 29 44 26 17 17 30 38 41 29 25 24 28 14 9 12 41 22 36 35 49 52 55 52 46 41 39
75 74 72 72 71 66 65 66 60 53 47 44 44 41 36 29 29 25 36 33 27 24 38 38 22 18 21 21 19 23 22 22 14 21 25 31 45 45 44 38 36 33 40
80 77 78 81 77 70 67 60 53 52 50 43 30 17 20 14 15 25 33 31 20 33 25 19 14 17 21 22 23 24 22 21 15 23 19 48 53 52 40 33 33 39 39
80 76 83 86 80 68 62 52 49 50 40 36 27 20 16 13 25 21 7 18 26 18 14 13 11 17 21 23 24 24 24 22 24 26 39 52 54 51 44 40 32 36 39
Wind_Direction_850mb
173 175 175 171 170 171 171 173 172 163 157 157 158 155 153 144 141 145 144 144 140 137 140 138 138 138 132 119 121 119 114 107 105 104 100 95 86 71 58 58 48 46 43
171 174 173 168 171 172 171 171 171 168 165 165 166 167 159 150 148 150 148 146 145 142 142 142 139 139 135 128 125 121 116 114 113 108 100 94 84 71 57 47 33 25 17
175 172 171 171 171 172 168 165 167 168 168 171 170 166 160 155 154 154 150 146 143 144 146 146 142 137 135 133 129 124 120 123 125 105 99 95 80 65 44 28 19 13 7
175 172 173 172 172 171 165 162 165 166 169 170 170 167 161 157 157 155 152 148 146 147 149 148 144 141 140 138 136 132 134 137 136 124 99 68 34 19 6 10 11 6 358
176 174 174 172 172 170 166 162 163 166 168 168 167 164 162 160 160 158 157 156 157 155 152 156 156 150 147 147 145 146 151 151 151 130 38 335 330 340 354 9 7 4 359
176 175 174 174 174 171 166 164 163 165 165 165 165 164 163 163 164 163 164 166 165 165 165 162 159 158 158 159 159 164 165 169 173 225 299 320 332 316 323 328 340 343 343
176 175 174 176 176 173 168 166 166 165 164 165 167 168 167 168 169 170 170 169 170 169 166 163 164 165 165 162 164 175 188 193 210 271 301 312 321 328 319 313 319 323 322
179 177 176 177 178 176 173 171 170 167 164 168 171 172 171 172 172 171 171 169 164 161 160 161 161 160 157 156 162 178 203 229 254 277 292 296 303 305 305 307 306 310 306
182 180 178 178 179 179 178 176 174 170 167 170 175 176 175 173 171 171 170 165 158 153 150 150 150 154 157 156 166 190 223 253 270 279 290 302 304 304 299 298 308 311 307
183 183 181 181 182 181 180 179 178 176 173 173 177 180 179 176 174 173 172 167 162 158 151 150 152 155 159 173 192 248 288 287 287 289 293 302 312 322 324 308 301 303 305
186 186 185 185 184 184 183 181 180 180 180 179 180 183 186 183 181 178 176 174 171 168 164 163 166 165 165 158 160 170 311 296 286 302 302 303 300 298 296 295 294 295 297
188 188 189 188 187 186 186 186 185 186 186 187 187 189 191 191 189 184 182 179 178 173 170 168 166 176 183 172 186 216 291 304 290 293 303 306 306 300 295 292 294 301 303
191 189 189 189 190 190 190 190 190 192 192 193 194 196 197 196 196 193 189 186 180 182 185 172 141 140 160 182 202 236 283 302 306 307 307 307 307 305 300 295 295 301 306
193 192 190 190 191 193 195 196 198 198 198 199 200 203 205 202 201 200 197 189 182 170 172 169 174 184 185 185 230 296 310 310 307 310 311 310 309 309 307 304 304 303 300
197 195 192 192 196 198 200 201 203 203 204 205 207 211 211 208 207 204 198 186 175 175 166 176 188 188 200 248 305 327 323 316 314 311 307 310 310 306 304 303 301 297 297
199 197 194 194 199 202 206 207 207 207 207 208 212 215 213 210 208 205 195 185 187 180 182 196 203 224 248 294 314 311 308 312 309 311 312 312 311 308 307 303 299 295 296
200 198 197 199 201 206 207 207 206 206 208 210 213 214 214 210 199 193 194 192 187 193 213 227 244 251 261 286 294 305 314 318 317 317 312 312 313 315 315 312 309 304 302
198 199 201 203 203 205 206 204 204 205 205 206 208 211 212 206 196 195 196 200 204 218 225 242 248 265 275 290 303 315 319 318 316 311 313 314 314 316 313 311 309 305 305
196 196 200 204 204 203 203 204 204 204 203 203 205 208 208 202 198 201 202 205 211 223 244 261 276 287 290 301 305 309 313 312 313 319 319 322 322 323 320 315 310 307 305
198 196 200 203 202 203 203 204 204 204 204 207 210 208 210 200 199 207 217 218 220 254 286 300 304 286 299 295 301 310 316 320 318 321 331 327 320 320 321 320 316 313 312
201 197 199 202 203 202 201 202 202 205 204 199 194 197 198 202 207 218 215 212 220 254 274 282 268 286 285 294 306 312 322 323 315 312 324 320 321 317 319 320 317 314 311
204 202 204 206 205 204 203 201 201 203 200 200 203 210 212 219 216 224 227 213 218 141 185 280 286 282 283 292 320 327 316 311 303 310 322 312 315 313 321 326 324 324 325
207 207 205 208 208 205 203 204 208 204 205 212 222 230 236 235 223 220 230 208 172 168 238 280 269 275 284 311 322 330 310 284 311 294 314 314 316 315 323 331 333 334 328
202 201 203 209 208 208 208 210 215 211 210 219 233 237 236 218 182 52 43 35 177 198 256 261 270 280 301 312 326 324 326 315 298 305 318 322 327 333 334 342 344 342 335
196 198 202 206 208 208 209 212 218 214 215 222 208 184 175 166 98 108 117 154 198 244 237 251 265 299 303 319 325 331 328 334 321 325 320 337 344 353 4 5 355 349 346
193 197 202 207 210 209 208 210 214 217 209 218 196 153 130 127 137 113 166 217 198 198 207 246 295 306 316 321 327 336 343 346 344 349 340 342 347 360 8 5 3 355 347